Regional Weather Roundup
Issued by NWS

Home | Current Version | Previous Version | Graphics & Text | Print | Product List | Glossary On
Versions: 1 2 3 4 5 6 7 8 9 10 11 12 13 14 15 16 17 18 19 20 21 22 23 24 25 26 27 28 29 30 31 32 33 34 35 36 37 38 39 40 41 42 43 44 45 46 47 48 49 50
000
ASUS43 KTOP 210608
RWRKS

WEATHER ROUNDUP FOR KANSAS
NATIONAL WEATHER SERVICE GOODLAND KS
1200 AM CST TUE FEB 21 2017

NOTE:  "FAIR" INDICATES FEW OR NO CLOUDS BELOW 12,000 FEET WITH NO
SIGNIFICANT WEATHER AND/OR OBSTRUCTIONS TO VISIBILITY.

KSZ001>006-013>018-027>032-041>047-210700-
NORTHWEST KANSAS

CITY           SKY/WX    TMP DP  RH WIND       PRES   REMARKS
GOODLAND       CLOUDY    42  14  32 SW9       30.01S
6HR MIN TEMP:  32; 6HR MAX TEMP:  59;

HAYS           CLEAR     34  29  82 W6        30.01S
HILL CITY      CLEAR     36  27  69 W6        30.00F
6HR MIN TEMP:  33; 6HR MAX TEMP:  62;

RUSSELL        CLEAR     39  32  76 W3        29.99R
6HR MIN TEMP:  36; 6HR MAX TEMP:  62;

$$

KSZ061>065-074>080-084>089-210700-
SOUTHWEST KANSAS

CITY           SKY/WX    TMP DP  RH WIND       PRES   REMARKS
DODGE CITY     CLEAR     37  24  59 NW6       30.02F
6HR MIN TEMP:  37; 6HR MAX TEMP:  62;

ELKHART          N/A     41  11  29 W3          N/A
GARDEN CITY    CLOUDY    35  18  49 NW8       30.03F
6HR MIN TEMP:  33; 6HR MAX TEMP:  62;

GREAT BEND     CLEAR     38  31  76 NW10      30.00S WCI  31
LIBERAL        CLEAR     34  12  40 NW9       30.05S
PRATT          CLEAR     36  31  83 NW8       30.00S
6HR MIN TEMP:  36; 6HR MAX TEMP:  60;

$$

KSZ066>073-081>083-090>101-210700-
SOUTHEAST KANSAS

CITY           SKY/WX    TMP DP  RH WIND       PRES   REMARKS
CHANUTE        PTCLDY    45  44  97 CALM      29.92S FOG
6HR MIN TEMP:  48; 6HR MAX TEMP:  61;

COFFEYVILLE    FOG       48  48 100 CALM      29.92S VSB 1/4
6HR MIN TEMP:  49; 6HR MAX TEMP:  62;

HUTCHINSON     CLEAR     50  38  63 N10       29.97R
6HR MIN TEMP:  50; 6HR MAX TEMP:  64;

MEDICINE LODGE   N/A     46  36  68 N3        29.97S
NEWTON         CLEAR     48  43  82 N9        29.96S
PARSONS        CLOUDY    47  45  93 CALM      29.94R
6HR MIN TEMP:  47; 6HR MAX TEMP:  62;

WICHITA INTL   CLEAR     53  43  68 N10       29.95S
6HR MIN TEMP:  48; 6HR MAX TEMP:  59;

WICHITA JABRA  CLEAR     51  44  77 N12       29.95R
6HR MIN TEMP:  48; 6HR MAX TEMP:  58;

WICHITA MCCONL CLEAR     53  43  70 NE12      29.94S
WINFIELD       CLEAR     47  46  97 N3        29.94S FOG
6HR MIN TEMP:  44; 6HR MAX TEMP:  58;

$$

KSZ007>012-019>026-033>040-048>060-102>105-210700-
NORTHEAST KANSAS

CITY           SKY/WX    TMP DP  RH WIND       PRES   REMARKS
CONCORDIA      CLEAR     47  39  74 CALM      29.98R
6HR MIN TEMP:  41; 6HR MAX TEMP:  63;

EMPORIA        CLEAR     50  48  93 N9        29.93S
6HR MIN TEMP:  48; 6HR MAX TEMP:  60;

LAWRENCE       CLOUDY    51  49  92 NW9       29.92S
6HR MIN TEMP:  51; 6HR MAX TEMP:  62;

MANHATTAN      CLEAR     46  42  86 CALM      29.95F
6HR MIN TEMP:  42; 6HR MAX TEMP:  60;

MARYSVILLE     CLEAR     41  39  93 CALM      29.95F
OLATHE IND     CLOUDY    54  50  86 CALM      29.92F
6HR MIN TEMP:  54; 6HR MAX TEMP:  62;

OLATHE EXE     CLOUDY    55  52  89 CALM      29.91F
6HR MIN TEMP:  55; 6HR MAX TEMP:  62;

SALINA         CLEAR     44  37  76 NW12      29.97F
6HR MIN TEMP:  44; 6HR MAX TEMP:  66;

TOPEKA BILLARD PTCLDY    53  47  79 N7        29.93R
6HR MIN TEMP:  51; 6HR MAX TEMP:  62;

TOPEKA FORBES  PTCLDY    51  47  86 N8        29.93R
6HR MIN TEMP:  51; 6HR MAX TEMP:  62;

$$




USA.gov is the U.S. government's official web portal to all federal, state and local government web resources and services.